Terminal Aerodrome Forecast
Issued by NWS New Orleans/Baton Rouge, LA

Home | Current Version | Previous Version | Text Only | Print | Product List | Glossary On
Versions: 1 2 3 4 5 6 7 8 9 10 11 12 13 14 15 16 17 18 19 20 21 22 23 24 25 26
000
FTUS44 KLIX 241100
TAFNEW
TAF
KNEW 241134Z 2412/2512 15005KT P6SM SKC
     FM241500 32007KT P6SM SCT020 BKN040
     FM242000 23007KT P6SM VCSH SCT040
     FM250100 19007KT P6SM SKC=

USA.gov is the U.S. government's official web portal to all federal, state and local government web resources and services.